This is the latest recevied weather packets stored in our database for station/object IZ8NVY-15. If no packets are shown the sender has not sent any weather packets the latest 10 day(s).
| Time | Temp. | Humidity | Pressure | Rain* | Wind** | Luminosity | Snow |
|---|---|---|---|---|---|---|---|
| 1778118949 | 15° C | 85% | 978.4 hPa | - | - | - | - |
| 1778115358 | 15° C | 83% | 978.4 hPa | - | - | - | - |
| 1778111747 | 15° C | 81% | 978.8 hPa | - | - | - | - |
| 1778108145 | 15.56° C | 78% | 979.3 hPa | - | - | - | - |
| 1778104544 | 16.11° C | 74% | 979.3 hPa | - | - | - | - |
| 1778100943 | 16.67° C | 65% | 979.3 hPa | - | - | - | - |
| 1778097342 | 18.33° C | 60% | 979.7 hPa | - | - | - | - |
| 1778090139 | 19.44° C | 57% | 978.1 hPa | - | - | - | - |
| 1778086540 | 20.56° C | 55% | 977.9 hPa | - | - | - | - |
| 1778082941 | 22.22° C | 52% | 978 hPa | - | - | - | - |
| 1778075733 | 26.67° C | 49% | 977.4 hPa | - | - | - | - |
| 1778057725 | 25° C | 63% | 978.5 hPa | - | - | - | - |
| 1778054125 | 20.56° C | 66% | 978.8 hPa | - | - | - | - |
| 1778043329 | 15.56° C | 73% | 978.6 hPa | - | - | - | - |
| 1778039722 | 15° C | 76% | 978.3 hPa | - | - | - | - |
| 1778036122 | 14.44° C | 78% | 978.3 hPa | - | - | - | - |
| 1778032516 | 15.56° C | 77% | 978.7 hPa | - | - | - | - |
| 1778028914 | 15° C | 76% | 979 hPa | - | - | - | - |
| 1778025314 | 14.44° C | 73% | 979.1 hPa | - | - | - | - |
| 1778021714 | 14.44° C | 68% | 979.5 hPa | - | - | - | - |
| 1778018110 | 15° C | 57% | 979.8 hPa | - | - | - | - |
| 1778000109 | 19.44° C | 48% | 979.7 hPa | - | - | - | - |
| 1777974892 | 23.89° C | 53% | 981.5 hPa | - | - | - | - |
| 1777971290 | 21.67° C | 55% | 981.4 hPa | - | - | - | - |
| 1777967689 | 20° C | 56% | 981.5 hPa | - | - | - | - |
* Rain since midnight (hover to see other rain measurements)
** Current wind speed in m/s (hover to see current wind gust speed)